Location: Berville
(49.1893°N, 2.0748°E)
Time: 18:47:25
(UTC+00:00)

RESURS DK-1 - Pass Details

Date: 08 February 2023
Orbit: 549 x 558 km, 69.9° (Epoch: 29 March)

Event Time Altitude Azimuth Distance (km) Brightness Sun altitude
Rises 17:56:07 0° 324° (NW) 2,741 6.2 -9.7°
Reaches altitude 10° 17:58:25 10° 316° (NW) 1,844 5.5 -10.0°
Maximum altitude 18:02:14 38° 248° (WSW) 856 4.0 -10.6°
Drops below altitude 10° 18:06:03 10° 180° (S) 1,836 5.1 -11.3°
Sets 18:08:20 0° 172° (S) 2,728 5.9 -11.6°
